www.pogodaiklimat.ru

Погода и климат >> Архив погоды >> Беларусь >> Новогрудок


ПОГОДА в Новогрудке

  • Прогноз погоды в Новогрудке
  • Монитор погоды в Новогрудке

АРХИВ ПОГОДЫ в Новогрудке

Время (UTC), дата Ветер
(напр.,м/с)
 
Видим.   Явления Облачность Т
(С)
Тd
(С)
f
(%)
Тe
(С)
Тes
(С)
Комфортность P
(гПа)
Po
(гПа)
Тmin
(С)
Tmax
(С)
R
(мм)
R24
(мм)
S
(см)
00 16.09 ЮЗ 4
{10}
10 км {ливн. осадки} 8/0
[Ac As]
+14.7 +7.7 63 +14 +14 1007.0 974.1
03 16.09 ЮЗ 5
{10}
10 км 9/4 600 м
[Sc Ac trans]
+14.2 +7.9 66 +13 +13 1007.0 974.0 +13.5
06 16.09 З 6-11
{13}
10 км 9/3 600 м
[Sc Ac trans Ci fib]
+12.5 +4.9 60 +10 +10 1008.0 974.8 +11.7 0.3
09 16.09 З 9-14
{17}
10 км 9/6 600 м
[Sc Ac trans]
+14.5 +5.0 53 +12 +12 1008.0 975.0
12 16.09 З 8-13
{16}
10 км 9/5 600 м
[Sc Ac trans Ci fib]
+15.1 +5.6 53 +13 +13 1008.0 975.1
15 16.09 З 6-12
{16}
10 км 9/3 600 м
[Cb cap Ac trans Ci fib]
+14.5 +5.8 56 +13 +13 1007.0 974.1
18 16.09 З 4
{13}
10 км в посл. час ливневой дождь 8/4 600 м
[Cb cap Ac As]
+11.7 +7.4 75 +10 +10 1008.0 974.7 +16.0 0.3
21 16.09 ЮЗ 4
{10}
10 км 6/3 600 м
[Cb cap Ac As]
+10.0 +6.3 78 +7 +7 1008.0 974.5
00 17.09 ЮЗ 5
{11}
10 км 4/0
[As trans]
+9.3 +6.0 80 +6 +6 1007.0 973.5
03 17.09 ЮЗ 4 10 км 4/3 600 м
[Sc Ac trans]
+7.9 +4.8 81 +5 +5 1006.0 972.3 +7.8
06 17.09 З 6-11
{11}
10 км 4/3 600 м
[Sc Ac trans Ci fib]
+9.0 +5.7 80 +5 +6 1006.0 972.5 +7.4
09 17.09 ЮЗ 5
{11}
10 км 8/8 600 м
[Cu med, cong]
+11.6 +5.0 64 +9 +9 1006.0 972.7
12 17.09 ЮЗ 5
{11}
10 км 9/9 630 м
[Cb cap]
+13.3 +4.4 55 +12 +12 1004.0 971.0
15 17.09 ЮЗ 5
{11}
10 км {ливн. осадки} 9/6 600 м
[Cb cap Ac trans Ci sp]
+10.2 +7.6 84 +7 +7 1003.0 969.7
18 17.09 Ю 2 4000 м слаб. ливневой дождь 10/10 870 м
[Cb cap]
+8.1 +7.0 93 +6 +6 1001.0 967.5 +14.0 4
21 17.09 ЮЗ 4
{11}
10 км {ливн. осадки} 9/8 630 м
[Sc Ac trans]
+6.7 +5.6 93 +3 +3 1000.0 966.4
00 18.09 З 4
{10}
4000 м дымка {ливн. осадки} 10/10 300 м
[St]
+6.6 +5.7 94 +3 +3 999.0 965.4
03 18.09 З 4
{10}
4000 м слаб. ливневой дождь 10/10 330 м
[Cb cap]
+5.3 +4.6 95 +1 +1 999.0 965.2 +5.2
06 18.09 З 4
{10}
4000 м дымка {ливн. осадки} 10/10 330 м
[St]
+5.2 +4.3 94 +1 +1 1001.0 967.2 +4.9 4
09 18.09 З 3 10 км {дождь} 9/9 330 м
[Sc]
+7.1 +5.2 88 +4 +4 1003.0 969.3
12 18.09 З 5
{10}
10 км {дождь} 9/6 600 м
[Cb cap Ac trans]
+8.8 +4.8 76 +5 +5 1006.0 972.4
15 18.09 СЗ 3 10 км 8/6 600 м
[Cb cap Ac trans]
+9.8 +5.0 72 +8 +8 1008.0 974.5
18 18.09 З 5
{10}
10 км {ливн. осадки} 9/8 630 м
[Sc Ac trans]
+7.4 +6.2 92 +3 +3 1010.0 976.1 +10.1 2
21 18.09 З 4 10 км 9/9 270 м
[Sc]
+7.6 +6.5 93 +4 +4 1012.0 978.1
00 19.09 З 3 4000 м слаб. ливневой дождь 10/10 240 м
[Cb cap]
+7.4 +6.5 94 +4 +4 1013.0 979.0
03 19.09 З 4 10 км {ливн. осадки} 9/8 300 м
[Sc Ac trans]
+7.1 +5.7 91 +3 +3 1013.0 979.0 +7.0
06 19.09 З 3 4000 м в посл. час морось {ливн. осадки} 10/10 300 м
[St]
+6.9 +6.5 97 +4 +4 1015.0 980.9 +6.7 0.4
09 19.09 СЗ 4 10 км 8/5 600 м
[Cb cap Ac trans]
+9.4 +5.6 77 +7 +7 1016.0 982.2
12 19.09 СЗ 2 10 км 6/3 600 м
[Cb cap Ac trans Ci fib]
+11.0 +5.7 70 +10 +12 1017.0 983.3
15 19.09 З 4
{10}
10 км 6/3 600 м
[Sc Ac trans]
+11.2 +5.1 66 +9 +9 1017.0 983.3
18 19.09 З 4 10 км {ливн. осадки} 4/0
[Ac trans Ci fib]
+7.4 +4.5 82 +4 +4 1018.0 983.8 +11.2 0.0
21 19.09 З 4 10 км 3 балла +5.2 +3.5 89 +1 +1 1019.0 984.5
00 20.09 З 4 4000 м дымка 5/4 300 м
[St Ac trans]
+4.3 +3.6 95 -0 -0 1018.0 983.5
03 20.09 З 4 4000 м слаб. морось 10/10 360 м
[St]
+5.3 +4.9 97 +1 +1 1018.0 983.6 +3.8
06 20.09 СЗ 5-10
{11}
10 км {ливн. осадки, морось} 9/9 360 м
[Sc]
+5.0 +3.3 89 0 0 1019.0 984.5 +3.8 0.3
09 20.09 СЗ 4-10
{10}
10 км 9/9 570 м
[Sc]
+7.0 +3.2 77 +4 +4 1020.0 985.7
12 20.09 СЗ 4
{10}
10 км 6/6 600 м
[Cu med, cong]
+9.1 0.0 53 +7 +8 1020.0 986.0
15 20.09 СЗ 3
{11}
10 км 4/4 600 м
[Sc diur, vesp]
+9.2 -0.7 50 +7 +8 1020.0 986.0
18 20.09 СЗ 2 10 км 3/0
[Ci fib]
+6.1 -0.6 62 +4 +4 1022.0 987.5 +10.6
21 20.09 СЗ 1 10 км 3/0
[Ci fib]
+4.7 -0.5 69 +4 +4 1023.0 988.3
00 21.09 ЮЗ 2 10 км 4/0
[Ci sp]
+4.7 +0.3 73 +2 +2 1022.0 987.4
03 21.09 ЮЗ 3 10 км 8/0
[Ac trans Ci sp]
+4.0 +1.7 85 0 0 1021.0 986.3 +3.9
06 21.09 ЮЗ 4 10 км в посл. час ливневой дождь 10/5 600 м
[Cb cap Ac As]
+6.5 +1.8 72 +3 +3 1019.0 984.7 +3.8 0.0
09 21.09 ЮЗ 5 2000 м морось {дождь} 10/10 150 м
[St]
+6.8 +6.4 97 +2 +2 1019.0 984.8
12 21.09 ЮЗ 4
{10}
4000 м слаб. дождь {морось} 10/9 210 м
[Frnb As op]
+9.3 +9.0 98 +6 +6 1017.0 983.1
15 21.09 ЮЗ 6
{11}
10 км {дождь} 10/10 270 м
[St]
+11.8 +11.0 95 +9 +9 1015.0 981.5
18 21.09 З 4
{11}
4000 м слаб. ливневой дождь 10/10 400 м
[Cb cap]
+12.2 +11.4 95 +10 +10 1015.0 981.6 +12.6 2
21 21.09 СЗ 3
{11}
10 км {ливн. осадки} 10/10 400 м
[Sc]
+11.9 +10.1 89 +10 +10 1015.0 981.5
00 22.09 З 3
{11}
10 км 10 баллов +11.0 +8.9 87 +9 +9 1015.0 981.4
03 22.09 З 2
{10}
10 км 3 балла +10.2 +9.0 92 +9 +9 1015.0 981.3 +10.1
06 22.09 З 6
{10}
10 км 10 баллов +10.0 +8.9 93 +6 +6 1016.0 982.3 +9.5 0.1
09 22.09 ЮЗ 5
{11}
10 км 6 баллов +12.8 +9.4 80 +11 +12 1016.0 982.6
12 22.09 З 5
{13}
10 км 3 балла +16.8 +10.2 65 +16 +18 1013.0 980.2
15 22.09 СЗ 4
{11}
10 км 3 балла +15.7 +10.0 69 +15 +15 1013.0 980.0
18 22.09 СВ 6
{10}
4000 м 10 баллов +7.7 +5.8 88 +3 +3 1016.0 982.0 +18.1
21 22.09 СВ 4
{11}
10 км 10 баллов +4.6 +3.9 95 0 0 1018.0 983.5

 

Местоположение метеостанции Новогрудок (Гродненская область, Беларусь): широта 53.60 долгота 25.85 высота над уровнем моря 280 м.

В архиве по умолчанию представлена погода в Новогрудке за последнюю неделю. Архивные данные за месяц целиком и за предыдущие месяцы, начиная с января 2011 года, Вы можете получить, выбрав интересующий диапазон дат из раскрывающегося списка и нажав кнопку "Ввод!".


*Определитесь, кто Вы:
робот инопланетянин человек

Внимание! Время в таблицах - всемирное. Для получения местного времени необходимо прибавить поправку, которая равна 3 ч.

Смотрите также архив погоды в соседних городах и на ближайших метеорологических станциях:

Погода в Лиде (Гродненская область, Беларусь) (48 км)
Погода в Барановичах (Брестская область, Беларусь) (53 км)
Погода в Столбцах (Минская область, Беларусь) (60 км)
Погода в Воложине (Минская область, Беларусь) (70 км)
Погода в Ошмянах (Гродненская область, Беларусь) (92 км)
Погода в Ганцевичах (Брестская область, Беларусь) (102 км)
Погода в Волковыске (Гродненская область, Беларусь) (104 км)
Погода в Ивацевичах (Брестская область, Беларусь) (105 км)
Погода в Варена (Литва) (112 км)
Погода в Гродно (Гродненская область, Беларусь) (119 км)

Пояснения к столбцам:

Ветер - указаны скорость ветра в м/с - средняя за 10 мин, порывы в срок и между сроками (в фигурных скобках) и направление, откуда дует ветер: С - северный, СВ - северо-восточный, В - восточный, ЮВ - юго-восточный, Ю - южный, ЮЗ - юго-западный, З - западный, СЗ - северо-западный.
Видимость - горизонтальная дальность видимости в метрах или километрах. При видимости от 1 до 10 км при отсутствии осадков обычно наблюдается дымка, при ухудшении видимости до 1 км и менее - туман. В сухую погоду видимость может ухудшаться дымом, пылью или мглою.
Явления - указаны атмосферные явления, наблюдавшиеся в срок или в последний час перед сроком; фигурными скобками обозначены явления, наблюдавшиеся между сроками (за 1-3 часа до срока); квадратными скобками обозначены град или гололедные отложения с указанием их диаметра в мм.
Облачность - указаны через наклонную черту общая и нижняя облачность в баллах и высота нижней границы облаков в метрах; квадратными скобками обозначены формы облаков: Ci - перистые, Cs - перисто-слоистые, Cc - перисто-кучевые, Ac - высококучевые, As - высокослоистые, Sc - слоисто-кучевые, Ns - слоисто-дождевые, Cu - кучевые, Cb - кучево-дождевые. Подробнее классификацию облаков см. в Атласе облаков (PDF).
T - Температура воздуха - температура, измеренная на высоте 2 м над землей.
Td - Температура точки росы - температура, при понижении до которой содержащийся в воздухе водяной пар достигнет насыщения.
f - Относительная влажность воздуха - влажноcть воздуха, измеренная на высоте 2 м над землей.
Te - Эффективная температура - температура, которую ощущает одетый по сезону человек в тени. Характеристика душности погоды. При расчете учитывается влияние влажности воздуха и скорости ветра на теплоощущения человека.
Tes - Эффективная температура на солнце - температура, которую ощущает человек, с поправкой на солнечный нагрев. Характеристика знойности погоды. Зависит от высоты солнца над горизонтом, облачности и скорости ветра. Ночью, в пасмурную погоду, а также при ветре 12 м/с и более поправка равна нулю.
P - Атмосферное давление - приведенное к уровню моря атмосферное давление.
Po - Атмосферное давление - измеренное на уровне метеостанции атмосферное давление.
Tmin - Минимальная температура - минимум температуры воздуха на высоте 2 м над землей.
Tmax - Максимальная температура - максимум температуры воздуха на высоте 2 м над землей.
R - Количество осадков - Количество выпавших осадков за период времени, мм. При наведении курсора мыши на число - период времени, за который выпало указанное количество осадков.
R24 - Количество осадков - Количество выпавших осадков за 24 часа, мм.
S - Снежный покров - Высота снежного покрова, см. При наведении курсора мыши на число - состояние снежного покрова и степень покрытия местности в баллах.